TimeMDT,TemperatureF,Dew PointF,Humidity,Sea Level PressureIn,VisibilityMPH,Wind Direction,Wind SpeedMPH,Gust SpeedMPH,PrecipitationIn,Events,Conditions,WindDirDegrees,DateUTC
12:55 AM,61.0,44.1,54,29.98,10.0,ESE,4.6,-,N/A,,Clear,120,2013-09-06 06:55:00
1:55 AM,59.0,43.0,55,29.98,10.0,SE,3.5,-,N/A,,Clear,130,2013-09-06 07:55:00
2:55 AM,54.0,43.0,66,29.99,10.0,Calm,Calm,-,N/A,,Clear,0,2013-09-06 08:55:00
3:55 AM,51.1,43.0,74,29.99,10.0,North,4.6,-,N/A,,Clear,10,2013-09-06 09:55:00
4:55 AM,51.1,42.1,71,30.00,10.0,North,5.8,-,N/A,,Clear,350,2013-09-06 10:55:00
5:55 AM,48.9,42.1,77,30.01,10.0,Calm,Calm,-,N/A,,Clear,0,2013-09-06 11:55:00
6:55 AM,51.1,42.1,71,30.03,10.0,Calm,Calm,-,N/A,,Clear,0,2013-09-06 12:55:00
7:55 AM,64.9,44.1,47,30.02,10.0,WNW,3.5,-,N/A,,Clear,290,2013-09-06 13:55:00
8:55 AM,75.9,44.1,32,30.00,10.0,Calm,Calm,-,N/A,,Clear,0,2013-09-06 14:55:00
9:55 AM,84.0,45.0,25,29.97,10.0,South,4.6,-,N/A,,Clear,170,2013-09-06 15:55:00
10:55 AM,89.1,39.0,17,29.96,10.0,SSE,12.7,-,N/A,,Clear,160,2013-09-06 16:55:00
11:55 AM,89.1,39.0,17,29.97,10.0,South,8.1,-,N/A,,Clear,190,2013-09-06 17:55:00
12:55 PM,91.0,39.0,16,29.95,10.0,SW,10.4,21.9,N/A,,Clear,220,2013-09-06 18:55:00
1:55 PM,91.9,37.9,15,29.94,10.0,South,10.4,17.3,N/A,,Clear,180,2013-09-06 19:55:00
2:55 PM,91.9,36.0,14,29.94,10.0,South,8.1,-,N/A,,Clear,180,2013-09-06 20:55:00
3:55 PM,91.9,37.0,15,29.92,10.0,South,11.5,18.4,N/A,,Clear,170,2013-09-06 21:55:00
4:55 PM,91.0,35.1,14,29.91,10.0,SSE,11.5,19.6,N/A,,Clear,160,2013-09-06 22:55:00
5:55 PM,89.1,36.0,15,29.92,10.0,SSE,11.5,-,N/A,,Clear,150,2013-09-06 23:55:00
6:55 PM,82.0,39.0,22,29.93,10.0,SSE,5.8,-,N/A,,Clear,150,2013-09-07 00:55:00
7:55 PM,71.1,39.9,32,29.94,10.0,SE,3.5,-,N/A,,Clear,140,2013-09-07 01:55:00
8:55 PM,63.0,39.9,43,29.94,10.0,Calm,Calm,-,N/A,,Clear,0,2013-09-07 02:55:00
9:55 PM,61.0,39.9,46,29.94,10.0,Calm,Calm,-,N/A,,Clear,0,2013-09-07 03:55:00
10:55 PM,57.9,39.9,51,29.94,10.0,NE,3.5,-,N/A,,Clear,40,2013-09-07 04:55:00
11:55 PM,55.0,39.9,57,29.96,10.0,NW,4.6,-,N/A,,Clear,320,2013-09-07 05:55:00